[[{"header":{"parameterUnit":"m.s-1","parameterCategory":1,"la1":30.2991,"la2":30.254,"lo1":-89.0895,"lo2":-89.0444,"dy":0.0017,"dx":0.0017,"nx":28,"ny":28,"refTime":"2024-06-09T21:00:00:Z","depth":0,"parameterNumber":2,"parameterNumberName":"U-component_of_WINDS"},"data":[0,0,0,0,0,0,0,0,0,0,0,0,0,0,0,0,0,0,0,0,0,0,0,0,0,0,0,0,0,0,0,0,0,0,0,0,0,0,0,0,0,0,0,0,0,0,0,0,0,0,0,0,0,0,0,0,0,0,5.2846,5.2847,0,5.2964,5.2965,5.2966,5.2876,5.2872,5.2868,5.2864,5.2984,5.2991,5.2997,0,0,0,0,0,0,0,0,0,0,0,0,0,5.254,5.2546,5.2846,5.2847,5.2849,5.2963,5.2965,5.2967,5.2876,5.2872,5.2867,5.2862,5.2982,5.299,5.2998,0,0,0,0,0,0,0,0,0,0,0,0,0,5.2667,5.2548,5.2846,5.2818,5.2816,5.2963,5.2965,5.2967,5.2877,5.2871,5.2866,5.286,5.2979,5.2989,5.2999,5.318,0,0,5.303,5.3035,0,0,0,0,0,0,0,0,5.266,5.2678,5.282,5.282,5.2819,5.2899,5.2901,5.3038,5.2879,5.2854,5.2864,5.2857,5.296,5.2972,5.3007,5.3185,5.319,5.3031,5.3038,5.3042,5.3045,0,0,0,0,0,0,0,5.2651,5.2673,5.2892,5.2822,5.2821,5.2798,5.281,5.2927,5.2939,5.2856,5.285,5.2865,5.2959,5.2997,5.3009,5.3192,5.3031,5.304,5.3047,5.3051,5.352,5.3526,0,0,0,0,0,0,5.2646,5.2666,5.2889,5.2896,5.2723,5.2809,5.2821,5.2879,5.2937,5.294,5.287,5.286,5.2982,5.2997,5.3013,5.3224,5.3042,5.3052,5.3057,5.3514,5.3522,5.3529,0,0,0,0,0,0,5.2639,5.2666,5.2884,5.2779,5.2805,5.282,5.2886,5.2885,5.2923,5.2948,5.2949,5.2907,5.2978,5.2998,5.3138,5.3227,5.3056,5.3065,5.3507,5.3516,5.3525,5.3651,0,0,0,0,0,0,5.2631,5.2665,5.2734,5.2782,5.2811,5.3008,5.2891,5.2891,5.2941,5.2929,5.2983,5.2986,5.2975,5.3123,5.3148,5.3238,5.3073,5.3499,5.3511,5.3522,5.3639,5.3664,5.3685,0,0,0,0,0,5.262,5.2766,5.2738,5.2765,5.2899,5.3014,5.303,5.3016,5.2948,5.3017,5.3033,5.2984,5.3214,5.3138,5.3166,5.326,5.3493,5.3507,5.3521,5.3629,5.3659,5.3685,0,0,0,0,0,0,5.2729,5.2772,5.2741,5.2907,5.2957,5.2998,5.3085,5.3049,5.3119,5.3106,5.3084,5.3097,5.3242,5.3266,5.318,5.3436,5.3343,5.3363,5.3415,5.3444,5.3467,5.3457,5.3082,0,0,0,0,0,5.2772,5.2862,5.2895,5.3037,5.3064,5.3071,5.312,5.3104,5.3156,5.3176,5.3202,5.3254,5.3337,5.3392,5.3471,5.3643,5.3651,5.3722,5.3744,5.3763,5.378,5.3869,5.3899,5.3575,5.3575,5.3575,0,0,5.2862,5.2896,5.2955,5.306,5.3097,5.319,5.3089,5.3193,5.326,5.3192,5.3324,5.3345,5.3401,5.3557,5.3627,5.358,5.3872,5.3781,5.3796,5.3803,5.3887,5.3918,5.3945,5.3585,5.3583,5.3582,0,0,5.3072,5.3109,5.323,5.3269,5.3326,5.3329,5.3358,5.3405,5.3416,5.3548,5.3498,5.3578,5.3724,5.3764,5.3804,5.4027,5.3984,5.4054,5.4173,5.426,5.4285,5.4308,5.4384,5.4412,5.4071,5.4072,5.4072,0,5.3176,5.3315,5.3297,5.3403,5.3449,5.3391,5.3512,5.3551,5.3631,5.3664,5.3612,5.379,5.3824,5.3986,5.404,5.4076,5.4106,5.4046,5.4283,5.4305,5.4326,5.4398,5.4427,5.4079,5.4078,5.4078,5.4077,0,5.3438,5.3535,5.3625,5.3703,5.376,5.3873,5.3871,5.3931,5.391,5.3918,5.4051,5.409,5.4173,5.4211,5.4193,5.4371,5.4339,5.4286,5.4191,5.4365,5.4432,5.446,5.409,5.4088,5.4085,5.4083,0,0,5.3719,5.3784,5.3818,5.385,5.3909,5.3983,5.4093,5.4174,5.4223,5.4281,5.437,5.4493,5.4443,5.4488,5.4473,5.455,5.472,5.4486,5.4487,5.4525,5.4914,5.4951,5.4984,5.4693,5.4698,5.4702,5.4908,0,5.3929,5.412,5.4106,5.4285,5.4372,5.4318,5.4413,5.4458,5.4469,5.4543,5.4554,5.464,5.457,5.4596,5.467,5.4684,5.4797,5.4669,5.4773,5.4777,5.4757,5.502,5.5061,5.5253,5.4935,5.4939,5.4943,0,5.42,5.4264,5.4452,5.4494,5.453,5.4616,5.4687,5.4761,5.481,5.4812,5.4861,5.4833,5.4941,5.4846,5.4994,5.4907,5.4948,5.4962,5.4969,5.4975,5.4868,5.503,5.5314,5.5342,5.4985,5.4981,5.4978,0,5.4381,5.4516,5.4644,5.4675,5.4729,5.4789,5.4815,5.4858,5.4907,5.497,5.5,5.5076,5.5116,5.5174,5.5166,5.5098,5.5315,5.522,5.5317,5.5317,5.5363,5.5359,5.5654,5.5396,5.5396,5.5395,5.5394,0,5.4615,5.473,5.4726,5.4805,5.4932,5.4915,5.5041,5.5059,5.5098,5.5178,5.5138,5.5213,5.5199,5.5275,5.5269,5.539,5.541,5.5412,5.5409,5.5414,5.5413,5.5439,5.5424,5.5403,5.5401,5.54,5.5398,0,5.4837,5.484,5.4975,5.5015,5.5027,5.5119,5.5152,5.5225,5.5232,5.5334,5.5356,5.5367,5.5453,5.5451,5.555,5.5546,5.5693,5.5676,5.5676,5.5671,5.5767,5.5756,5.6086,5.6126,5.5845,5.5848,5.585,0,5.4985,5.5072,5.5121,5.5171,5.52,5.5282,5.5331,5.5318,5.537,5.5432,5.5497,5.558,5.5644,5.5784,5.58,5.5874,5.5856,5.5967,5.5867,5.5869,5.5853,5.5847,5.5854,5.5985,5.5988,5.5991,5.5993,0,5.5245,5.5241,5.5313,5.5386,5.5445,5.5502,5.5554,5.5597,5.5589,5.565,5.5737,5.5787,5.5887,5.5968,5.6039,5.6063,5.6026,5.6025,5.605,5.6055,5.6049,5.6049,5.5725,5.6016,5.6014,5.6012,5.6011,5.601,5.5432,5.5505,5.555,5.5631,5.5669,5.5718,5.5787,5.5802,5.5875,5.5954,5.5942,5.6039,5.6084,5.6175,5.6206,5.628,5.6241,5.628,5.6289,5.6297,5.6306,5.6041,5.6294,5.6293,5.6293,5.6292,5.6292,0,5.5686,5.5712,5.5787,5.586,5.5923,5.5883,5.5938,5.5993,5.6079,5.6124,5.6188,5.6287,5.6365,5.6386,5.6461,5.6516,5.6501,5.6536,5.653,5.6535,5.6339,5.6307,5.6547,5.6547,5.6547,5.6547,5.6547,5.6547,5.5825,5.5947,5.5948,5.6087,5.6112,5.6206,5.624,5.6284,5.6319,5.6431,5.6496,5.651,5.6544,5.6621,5.669,5.6694,5.6722,5.6763,5.676,5.6575,5.655,5.6525,5.6495,5.677,5.6771,5.695,5.6951,5.6953]},{"header":{"parameterUnit":"m.s-1","parameterCategory":1,"la1":30.2991,"la2":30.254,"lo1":-89.0895,"lo2":-89.0444,"dy":0.0017,"dx":0.0017,"nx":28,"ny":28,"refTime":"2024-06-09T21:00:00:Z","depth":0,"parameterNumber":3,"parameterNumberName":"V-component_of_WINDS"},"data":[0,0,0,0,0,0,0,0,0,0,0,0,0,0,0,0,0,0,0,0,0,0,0,0,0,0,0,0,0,0,0,0,0,0,0,0,0,0,0,0,0,0,0,0,0,0,0,0,0,0,0,0,0,0,0,0,0,0,3.4237,3.4238,0,3.4311,3.4312,3.4313,3.4284,3.4282,3.4281,3.4279,3.4353,3.4356,3.436,0,0,0,0,0,0,0,0,0,0,0,0,0,3.4066,3.407,3.4237,3.4238,3.4239,3.4311,3.4312,3.4313,3.4285,3.4282,3.428,3.4278,3.4351,3.4356,3.436,0,0,0,0,0,0,0,0,0,0,0,0,0,3.4141,3.4071,3.4237,3.4233,3.4234,3.4311,3.4312,3.4314,3.4285,3.4282,3.428,3.4277,3.435,3.4355,3.436,3.4445,0,0,3.4377,3.4379,0,0,0,0,0,0,0,0,3.4136,3.4147,3.4233,3.4234,3.4234,3.4286,3.4279,3.4358,3.4286,3.4266,3.4279,3.4276,3.4332,3.4339,3.4358,3.4448,3.4451,3.4377,3.438,3.4383,3.4384,0,0,0,0,0,0,0,3.4131,3.4143,3.4266,3.4234,3.4235,3.4227,3.4234,3.4294,3.4312,3.4267,3.4265,3.4274,3.4332,3.4353,3.436,3.4453,3.4377,3.4382,3.4385,3.4387,3.4612,3.4615,0,0,0,0,0,0,3.4126,3.4139,3.4264,3.4269,3.4178,3.4232,3.4241,3.4272,3.4312,3.4315,3.4277,3.4273,3.4346,3.4354,3.4362,3.4462,3.4383,3.4388,3.4391,3.4609,3.4613,3.4616,0,0,0,0,0,0,3.4123,3.4138,3.4261,3.4204,3.4219,3.4238,3.4273,3.4275,3.4296,3.4319,3.4322,3.4295,3.4344,3.4355,3.4424,3.4464,3.439,3.4395,3.4606,3.461,3.4614,3.4663,0,0,0,0,0,0,3.4118,3.4137,3.417,3.4205,3.4222,3.4323,3.4276,3.4278,3.4306,3.4301,3.4337,3.434,3.4343,3.4416,3.4429,3.447,3.4399,3.4602,3.4608,3.4613,3.4658,3.4668,3.4677,0,0,0,0,0,3.4112,3.4181,3.4172,3.4187,3.4264,3.4326,3.4335,3.4337,3.4309,3.4342,3.4356,3.4339,3.4458,3.4424,3.4438,3.4481,3.46,3.4606,3.4612,3.4653,3.4666,3.4677,0,0,0,0,0,0,3.4151,3.4186,3.4176,3.4258,3.4289,3.4321,3.4362,3.4351,3.439,3.4384,3.4384,3.4392,3.4463,3.4479,3.4441,3.4563,3.4524,3.4534,3.455,3.4563,3.4572,3.4566,3.4404,0,0,0,0,0,3.4169,3.4217,3.4244,3.4314,3.433,3.4344,3.437,3.4369,3.4401,3.4413,3.4433,3.4463,3.4507,3.4536,3.4577,3.466,3.4666,3.4696,3.4706,3.4714,3.4722,3.4764,3.4777,3.4636,3.4636,3.4636,0,0,3.4207,3.4231,3.4262,3.4322,3.4346,3.4394,3.4355,3.4408,3.4443,3.4421,3.4487,3.4502,3.4536,3.4612,3.4646,3.4627,3.4762,3.4722,3.4728,3.4731,3.4771,3.4785,3.4797,3.464,3.464,3.4639,0,0,3.43,3.4324,3.4384,3.4409,3.4445,3.4453,3.4467,3.45,3.4509,3.4576,3.456,3.4601,3.4677,3.4701,3.4723,3.4823,3.4808,3.4836,3.4886,3.4928,3.4939,3.4948,3.4982,3.4994,3.4844,3.4844,3.4844,0,3.4342,3.4415,3.4416,3.447,3.4496,3.4479,3.4538,3.4561,3.4609,3.4627,3.4605,3.4699,3.472,3.48,3.4824,3.4843,3.4858,3.4832,3.4937,3.4947,3.4956,3.4988,3.5001,3.4847,3.4847,3.4847,3.4846,0,3.4464,3.4514,3.4558,3.4605,3.4636,3.4692,3.47,3.4731,3.4727,3.4737,3.4803,3.4828,3.4873,3.4892,3.4889,3.4971,3.4958,3.4937,3.4898,3.4973,3.5003,3.5015,3.4852,3.4851,3.485,3.4849,0,0,3.4584,3.463,3.4646,3.4665,3.4703,3.4742,3.4796,3.4841,3.4866,3.49,3.4944,3.5008,3.4988,3.5013,3.5011,3.5048,3.5122,3.5022,3.5022,3.5038,3.5212,3.5226,3.5241,3.5113,3.5115,3.5117,3.5208,0,3.4679,3.4776,3.4777,3.4865,3.4911,3.4894,3.4941,3.4968,3.4978,3.5017,3.5028,3.5072,3.5044,3.5058,3.5093,3.5106,3.5157,3.5099,3.5152,3.5154,3.5143,3.5257,3.5273,3.5358,3.522,3.5222,3.5224,0,3.4803,3.484,3.4933,3.4962,3.4981,3.5023,3.5063,3.5101,3.5131,3.5135,3.5162,3.5155,3.5208,3.5167,3.524,3.52,3.5222,3.5231,3.5234,3.5238,3.5193,3.5263,3.5386,3.5398,3.5243,3.5241,3.524,0,3.4879,3.4952,3.5016,3.5034,3.507,3.51,3.5116,3.5143,3.5169,3.5204,3.522,3.526,3.5282,3.5312,3.5315,3.5285,3.5387,3.5347,3.539,3.539,3.5412,3.5411,3.5539,3.5428,3.5428,3.5428,3.5427,0,3.4985,3.5041,3.5051,3.509,3.5152,3.5153,3.5214,3.5228,3.5252,3.5292,3.5279,3.5317,3.5319,3.5357,3.5359,3.5417,3.5428,3.5431,3.5431,3.5432,3.5431,3.5446,3.5439,3.5431,3.543,3.543,3.5429,0,3.508,3.5089,3.5158,3.5186,3.5194,3.5239,3.5262,3.5298,3.5307,3.5358,3.537,3.5382,3.5426,3.5432,3.5484,3.5485,3.5554,3.5548,3.5545,3.5543,3.5586,3.5581,3.5727,3.5745,3.5624,3.5625,3.5626,0,3.5146,3.519,3.5222,3.5248,3.5266,3.5309,3.5335,3.5337,3.5364,3.54,3.5431,3.5474,3.5509,3.5579,3.5592,3.5631,3.5625,3.5673,3.5631,3.5629,3.5624,3.562,3.5624,3.5681,3.5683,3.5684,3.5684,0,3.5262,3.5264,3.5302,3.5342,3.5374,3.5405,3.5435,3.5457,3.5461,3.5493,3.5538,3.5564,3.5616,3.5658,3.5696,3.5711,3.5698,3.5698,3.571,3.571,3.5706,3.5707,3.5565,3.5694,3.5693,3.5693,3.5692,3.5692,3.5344,3.538,3.5409,3.5451,3.5474,3.5501,3.5536,3.5548,3.5586,3.5629,3.5627,3.5676,3.5702,3.5752,3.5769,3.5806,3.579,3.5808,3.5812,3.5816,3.5819,3.5701,3.5813,3.5813,3.5813,3.5812,3.5812,0,3.5457,3.5474,3.5514,3.5555,3.5588,3.5574,3.5605,3.5633,3.5677,3.5703,3.5736,3.5787,3.5827,3.5842,3.5881,3.5907,3.5902,3.5917,3.5915,3.5918,3.5832,3.5817,3.5921,3.5921,3.5921,3.5921,3.5921,3.5921,3.552,3.5581,3.5585,3.5656,3.5672,3.5721,3.5739,3.5763,3.5784,3.5841,3.5874,3.5884,3.5905,3.5945,3.598,3.5984,3.5998,3.6015,3.6016,3.5935,3.5924,3.5914,3.59,3.6019,3.6019,3.6098,3.6099,3.6099]}]]